EW5773 Weather Reports


Display with metric or nautical units.
time (UTC)temp
F
wind
direction
speed
MPH
gust
MPH
rain 1hr
in
rain 24hr
in
rain mn
in
humidity
%
barometer
mb
20260901203009 63 327 1.0 3.0 0.00 0.00 0.00 67 1021.0
20260901201506 64 327 1.0 4.0 0.00 0.00 0.00 66 1021.0
20260901200004 64 327 2.0 3.0 0.00 0.00 0.00 65 1021.0
20260901194607 65 327 2.0 4.0 0.00 0.00 0.00 64 1020.8
20260901193104 66 321 3.0 5.0 0.00 0.00 0.00 63 1020.7
20260901191518 67 313 1.0 4.0 0.00 0.00 0.00 61 1020.5
20260901190023 68 312 1.0 5.0 0.00 0.00 0.00 59 1020.4
20260901184518 68 304 2.0 4.0 0.00 0.00 0.00 58 1020.1
20260901183022 70 299 1.0 4.0 0.00 0.00 0.00 57 1020.1
20260901181514 70 299 2.0 4.0 0.00 0.00 0.00 55 1020.0
20260901180014 71 297 2.0 7.0 0.00 0.00 0.00 52 1020.1
20260901174506 73 282 2.0 6.0 0.00 0.00 0.00 49 1020.1
20260901173004 74 275 2.0 6.0 0.00 0.00 0.00 47 1020.1
20260901171502 75 273 4.0 8.0 0.00 0.00 0.00 46 1020.2
20260901170003 75 279 2.0 6.0 0.00 0.00 0.00 46 1020.4
20260901164503 75 254 1.0 7.0 0.00 0.00 0.00 46 1020.4
20260901163016 75 248 0.0 8.0 0.00 0.00 0.00 47 1020.3
20260901161605 75 237 2.0 9.0 0.00 0.00 0.00 47 1020.4
20260901160010 75 292 2.0 10.0 0.00 0.00 0.00 46 1020.4
20260901154504 75 271 3.0 9.0 0.00 0.00 0.00 47 1020.4
20260901153103 75 248 4.0 9.0 0.00 0.00 0.00 46 1020.4
20260901151518 75 261 1.0 9.0 0.00 0.00 0.00 46 1020.3
20260901150017 76 269 3.0 7.0 0.00 0.00 0.00 45 1020.3
20260901144551 74 250 4.0 11.0 0.00 0.00 0.00 48 1020.5
20260901143013 74 304 3.0 10.0 0.00 0.00 0.00 47 1020.4
20260901141512 75 317 2.0 6.0 0.00 0.00 0.00 46 1020.5
20260901140010 75 238 4.0 10.0 0.00 0.00 0.00 47 1020.6
20260901134513 75 229 2.0 9.0 0.00 0.00 0.00 47 1020.7
20260901133013 74 280 2.0 10.0 0.00 0.00 0.00 48 1020.7
20260901131512 72 302 4.0 9.0 0.00 0.00 0.00 51 1020.9
20260901130011 73 293 5.0 10.0 0.00 0.00 0.00 51 1021.0
20260901124506 74 302 4.0 11.0 0.00 0.00 0.00 50 1021.3
20260901123003 73 304 1.0 8.0 0.00 0.00 0.00 50 1021.4
20260901121605 72 153 4.0 9.0 0.00 0.00 0.00 52 1021.6
20260901120022 71 313 4.0 11.0 0.00 0.00 0.00 52 1021.4
20260901114517 71 230 4.0 8.0 0.00 0.00 0.00 53 1021.7
20260901113019 71 276 3.0 11.0 0.00 0.00 0.00 51 1021.6
20260901111516 71 269 3.0 12.0 0.00 0.00 0.00 53 1021.7
20260901110014 70 249 5.0 13.0 0.00 0.00 0.00 51 1021.7
20260901104512 70 285 3.0 9.0 0.00 0.00 0.00 54 1021.9
20260901103014 70 228 7.0 13.0 0.00 0.00 0.00 57 1022.0
20260901101512 70 216 4.0 11.0 0.00 0.00 0.00 57 1022.0
20260901100008 69 277 2.0 10.0 0.00 0.00 0.00 61 1022.1
20260901094506 69 298 4.0 10.0 0.00 0.00 0.00 60 1022.2
20260901093005 67 292 3.0 9.0 0.00 0.00 0.00 62 1022.2
20260901091505 67 297 3.0 8.0 0.00 0.00 0.00 62 1022.0
20260901090006 66 240 1.0 7.0 0.00 0.00 0.00 66 1022.2
20260901083105 65 307 2.0 6.0 0.00 0.00 0.00 71 1022.1
20260901081519 62 306 1.0 5.0 0.00 0.00 0.00 74 1022.0
20260901080017 61 298 1.0 3.0 0.00 0.00 0.00 80 1021.9
20260901074516 60 289 1.0 4.0 0.00 0.00 0.00 84 1021.9
20260901073017 59 290 0.0 0.0 0.00 0.00 0.00 86 1021.8
20260901071515 58 290 0.0 3.0 0.00 0.00 0.00 86 1021.7
20260901070015 58 290 1.0 5.0 0.00 0.00 0.00 87 1021.7
20260901064514 57 291 1.0 3.0 0.00 0.00 0.00 89 1021.6
20260901063018 56 291 1.0 4.0 0.00 0.00 0.00 89 1021.7
20260901061507 56 289 1.0 4.0 0.00 0.00 0.00 89 1021.6
20260901060019 56 290 2.0 4.0 0.00 0.00 0.00 89 1021.5
20260901054506 55 289 1.0 4.0 0.00 0.00 0.00 89 1021.3
20260901053006 55 288 1.0 4.0 0.00 0.00 0.00 89 1021.2
20260901051503 55 290 0.0 3.0 0.00 0.00 0.00 88 1021.0
20260901050003 55 290 0.0 2.0 0.00 0.00 0.00 88 1020.8
20260901043055 56 290 0.0 3.0 0.00 0.00 0.00 88 1020.6
20260901041614 56 289 1.0 5.0 0.00 0.00 0.00 88 1020.8
20260901040118 56 290 0.0 1.0 0.00 0.00 0.00 87 1020.6
20260901034521 56 290 0.0 2.0 0.00 0.00 0.00 87 1020.9
20260901033019 57 290 1.0 3.0 0.00 0.00 0.00 87 1020.8
20260901031538 57 290 0.0 3.0 0.00 0.00 0.00 86 1020.7
20260901030110 57 291 0.0 4.0 0.00 0.00 0.00 86 1020.8
20260901024608 58 289 1.0 3.0 0.00 0.00 0.00 86 1020.8
20260901021603 58 288 1.0 4.0 0.00 0.00 0.00 85 1020.8
20260901020025 58 285 0.0 5.0 0.00 0.00 0.00 84 1020.9
20260901014520 59 289 2.0 7.0 0.00 0.00 0.00 84 1020.7
20260901013059 59 287 2.0 7.0 0.00 0.00 0.00 83 1020.8
20260901011520 60 295 2.0 8.0 0.00 0.00 0.00 82 1020.6
20260901010106 60 290 2.0 7.0 0.00 0.00 0.00 82 1020.6
20260901004547 60 284 1.0 4.0 0.00 0.00 0.00 81 1020.5
20260901003018 60 280 2.0 7.0 0.00 0.00 0.00 80 1020.6
20260901001517 60 284 1.0 4.0 0.00 0.00 0.00 80 1020.7
20260901000116 61 283 1.0 7.0 0.00 0.00 0.00 79 1020.5
20260831234513 61 289 1.0 4.0 0.00 0.00 0.00 78 1020.4
20260831233012 61 297 2.0 4.0 0.00 0.00 0.00 77 1020.5
20260831231516 62 299 2.0 4.0 0.00 0.00 0.00 76 1020.6
20260831230008 62 300 0.0 5.0 0.00 0.00 0.00 75 1020.5
20260831224503 62 303 0.0 3.0 0.00 0.00 0.00 75 1020.5
20260831223005 62 304 0.0 3.0 0.00 0.00 0.00 75 1020.4
20260831221554 62 304 0.0 3.0 0.00 0.00 0.00 74 1020.4
20260831220005 63 304 0.0 0.0 0.00 0.00 0.00 73 1020.3
20260831214610 63 303 0.0 0.0 0.00 0.00 0.00 72 1020.3
20260831213109 64 303 0.0 1.0 0.00 0.00 0.00 71 1020.2
20260831211517 64 303 0.0 4.0 0.00 0.00 0.00 70 1020.1
20260831210019 65 303 2.0 5.0 0.00 0.00 0.00 69 1020.0
20260831204515 65 294 2.0 5.0 0.00 0.00 0.00 68 1019.9